Location: Haulchin
(50.3172°N, 3.4360°E)
Time: 01:58:56
(UTC+00:00)

NOSS 3-4 (C) - Pass Details

Date: 23 May 2024
Orbit: 814 x 1397 km, 63.4° (Epoch: 04 June)

Event Time Altitude Azimuth Distance (km) Brightness Sun altitude
Rises 00:32:58 0° 315° (NW) 3,759 7.0 -18.2°
Reaches altitude 10° 00:35:29 10° 311° (NW) 2,883 6.3 -18.1°
Maximum altitude 00:42:09 54° 236° (WSW) 1,399 4.0 -17.8°
Enters shadow 00:47:18 21° 169° (S) 2,474 5.1 -17.6°
